922  
ASUS44 KFWD 101615  
RWRTX  
NORTH TEXAS HOURLY WEATHER ROUNDUP  
NATIONAL WEATHER SERVICE FORT WORTH TX  
1000 AM CST FRI NOV 10 2017  
 
NOTE: "FAIR" INDICATES FEW OR NO CLOUDS BELOW 12,000 FEET WITH NO  
SIGNIFICANT WEATHER AND/OR S TO VISIBILITY
.  
 
TXZ118-119-101700-  
DALLAS/FORT WORTH METROPLEX  
 
CITY SKY/WX TMP DP RH WIND PRES REMARKS
 
DFW AIRPORT PTSUNNY 55 47 74 E5 30.29S  
DALLAS LOVE MOSUNNY 55 46 71 E5 30.31S  
FTW MEACHAM PTSUNNY 54 48 80 E3 30.30R  
DAL-EXECUTIVE SUNNY 53 47 79 E7 30.30S  
FTW-ALLIANCE CLOUDY 52 48 86 CALM 30.30S FOG  
FTW-NAS-JRB PTSUNNY 55 46 71 CALM 30.31S  
FTW-SPINKS PTSUNNY 52 48 87 E5 30.32S FOG  
ARLINGTON SUNNY 53 47 79 VRB3 30.31S  
GRAND PRAIRIE SUNNY 54 45 71 CALM 30.33R  
ADDISON MOSUNNY 54 46 76 SE6 30.31S  
MESQUITE SUNNY 54 48 82 SE6 30.32S  
LANCASTER SUNNY 52 47 82 E3 30.33R  

 
 
TXZ091>094-102>105-117-120-121-131>134-101700-  
NORTH CENTRAL TEXAS  
 
CITY SKY/WX TMP DP RH WIND PRES REMARKS
 
SHRMAN/DENISON SUNNY 55 45 71 E6 30.33S  
GAINESVILLE MOSUNNY 50 47 87 CALM 30.33R  
BOWIE CLOUDY 48 46 94 SE3 30.30S FOG  
BRIDGEPORT CLOUDY 49 49 99 E3 30.32S FOG  
DENTON MOSUNNY 50 48 93 CALM 30.31S FOG  
MCKINNEY SUNNY 54 47 77 SE6 30.32S  
BONHAM SUNNY 52 45 78 CALM 30.34R  
GREENVILLE SUNNY 59 46 63 SE5 30.33S  
ROCKWALL SUNNY 56 46 70 SE7 30.33R HAZE  
TERRELL SUNNY 56 44 64 SE9 30.32S  
WAXAHACHIE PTSUNNY 55 47 76 E5 30.32S  
CLEBURNE CLOUDY 54 50 87 SE7 30.31S  
GRANBURY CLOUDY 53 49 85 E7 30.31S  

 
 
TXZ083>090-098>101-113>116-127>130-139>142-154-155-101700-  
WESTERN NORTH TEXAS  
 
CITY SKY/WX TMP DP RH WIND PRES REMARKS
 
WICHITA FALLS CLOUDY 46 44 93 E6 30.28F  
WF-KICKAPOO CLOUDY 47 45 93 E3 30.31F  
VERNON CLOUDY 47 44 87 SE12 30.28F  
ABILENE CLOUDY 48 48 100 SE8 30.26R FOG  
ABILENE-DYESS CLOUDY 49 49 100 SE6 30.25R  
GRAHAM N/A 47 32 55 SE5 30.28S  
BRECKENRIDGE CLOUDY 51 47 86 SE3 30.28R  
CISCO CLOUDY 48 46 93 SE9 30.27S  
EASTLAND CLOUDY 49 45 87 SE6 30.27S  
RANGER CLOUDY 49 46 87 SE3 30.28S  
MINERAL WELLS CLOUDY 49 46 90 S5 30.28S  
STEPHENVILLE CLOUDY 51 44 78 SE5 30.31S  
COMANCHE CLOUDY 50 50 100 SE6 30.29R  
BROWNWOOD CLOUDY 50 46 87 SE7 30.28S  
COLEMAN CLOUDY 49 47 93 SE6 30.27S  

 
 
TXZ143>147-156>162-174-175-101700-  
CENTRAL TEXAS  
 
CITY SKY/WX TMP DP RH WIND PRES REMARKS
 
WACO CLOUDY 52 48 86 NE7 30.31S  
WACO-TSTC CLOUDY 50 50 100 N5 30.32S FOG  
WACO-MCGREGOR CLOUDY 52 49 89 NE7 30.31S  
HILLSBORO CLOUDY 53 48 82 CALM 30.30S  
CORSICANA PTSUNNY 54 48 80 VRB7 30.32F  
MEXIA CLOUDY 54 48 80 S6 30.30S  
HEARNE CLOUDY 53 50 87 E5 30.31S  
CAMERON CLOUDY 53 49 87 CALM 30.30S  
TEMPLE CLOUDY 53 48 83 E6 30.31R  
KILLEEN CLOUDY 52 48 87 E6 30.28F  
KILLEEN-SKYLRK CLOUDY 53 49 86 E7 30.30S  
FORT HOOD CLOUDY 51 47 88 E5 30.27R  
GATESVILLE CLOUDY 52 50 93 CALM 30.32R  
HAMILTON CLOUDY 51 50 96 SE6 30.30R  
LAMPASAS CLOUDY 50 49 95 SE6 30.28R  

 
 
TXZ095>097-106>112-122>126-135>138-148>153-164>167-101700-  
EAST TEXAS  
 
CITY SKY/WX TMP DP RH WIND PRES REMARKS
 
PARIS SUNNY 55 45 67 SE8 30.34F HAZE  
SULPHUR SPRNGS SUNNY 56 45 65 CALM 30.36R  
MOUNT PLEASANT SUNNY 54 46 72 CALM 30.35S  
GILMER SUNNY 54 40 58 E5 30.34R  
MINEOLA SUNNY 55 45 67 E5 30.33S  
TYLER SUNNY 58 40 51 SE9 30.32S  
LONGVIEW NOT AVBL  
MARSHALL SUNNY 55 40 56 E5 30.35S  
ATHENS SUNNY 54 37 54 SE9 30.31F  
PALESTINE SUNNY 58 42 55 E9 30.33S  
JACKSONVILLE SUNNY 56 43 62 E6 30.33S  
HENDERSON SUNNY 56 40 54 E8 30.33S  
CENTER SUNNY 55 40 57 E5 30.34R  
NACOGDOCHES SUNNY 59 43 55 E6 30.32S  
LUFKIN SUNNY 58 46 64 E9 30.31R  

 
 
SUPPLEMENTAL OBSERVATIONS (NWS FORT WORTH AREA)  
 
CITY SKY/WX TMP DP RH WIND PRES REMARKS
 
CADDO GRASSLND N/A 57 48 72 SE2 N/A  
PAT MAYSE LAKE N/A 52 48 87 SE1 N/A  
GREENVILLE N/A 57 46 67 SE5 N/A  
LBJ GRASSLAND N/A 50 45 81 E3 N/A  
POSSUM KINGDOM N/A 48 43 81 SE6 N/A  
GRANBURY N/A 54 48 82 E7 N/A  
MCGREGOR N/A 54 48 82 NE7 N/A  
TEMPLE N/A 54 48 82 NE7 N/A  
LAKE LIMESTONE N/A 55 46 71 E7 N/A  

 
 
SUPPLEMENTAL OBSERVATIONS (NWS NORMAN AREA)  
 
CITY SKY/WX TMP DP RH WIND PRES REMARKS
 
GOODLETT N/A 41 40 97 E9 30.26S WCI 35  
ODELL N/A 45 45 100 SE8 30.29S  
CROWELL N/A 43 43 99 S8 30.29R WCI 38  
KNOX CITY N/A 42 40 93 SE3 30.29R  
SEYMOUR N/A 46 44 94 E6 30.28S  
MILLERS CREEK N/A 46 45 93 SE7 N/A  

 
 
SUPPLEMENTAL OBSERVATIONS (NWS SAN ANGELO AREA)  
 
CITY SKY/WX TMP DP RH WIND PRES REMARKS
 
WEINERT N/A 45 44 97 SE7 30.28S  
HASKELL N/A 44 44 98 SE7 30.27S  
THROCKMORTON N/A 47 45 92 SE8 30.29S  
STAMFORD N/A 46 45 99 E6 30.28S  
CLYDE N/A 48 48 100 SE3 30.26F  
HAMBY N/A 48 45 87 S5 N/A  
IVIE RESERVOIR N/A 48 46 93 E9 N/A  
COLORADO BEND N/A 52 48 87 SE6 N/A  

 
 
SUPPLEMENTAL OBSERVATIONS (NWS SHREVEPORT AREA)  
 
CITY SKY/WX TMP DP RH WIND PRES REMARKS
 
CLARKSVILLE N/A 59 45 58 E5 N/A  
TEXARKANA N/A 57 37 47 E6 N/A  
LINDEN N/A 57 39 51 E5 N/A  
GILMER N/A 57 41 54 E5 N/A  
HENDERSON N/A 57 39 51 E9 N/A  
LUFKIN N/A 59 43 55 MISG N/A  
N SABINE NF N/A 54 50 87 MISG N/A  
S SABINE NF N/A 61 45 55 NE6 N/A  

 
 
SUPPLEMENTAL OBSERVATIONS ARE A COLLECTION OF AUTOMATED INSTRUMENTS  
THAT ARE MAINTAINED BY A VARIETY OF FEDERAL AND STATE AGENCIES.  
CERTAIN ELEMENTS...SUCH AS HUMIDITY VALUES AND SUSTAINED WIND  
SPEEDS...MAY BE APPROXIMATED.  
 
 
 
CLICK HERE TO GO TO PREVIOUS BULLETINS.

The Nexlab TX Page Main Text Page

The Nexlab TX Page Main Text Page